Погода в Крючковке

Россия / Оренбургская область     51°33′58″N   55°56′11″E
темп.,
°C
ветер,
м/с
пор.,
м/с
влажн.,
%
обл.,
%
осадки,
мм/ч
давл.,
гПа
погр.,
м
9 марта, вт
вт923:00−4юз91787100 0.3 1013768
02:00−5ююз9178791 0.0 1012646
05:00−5юз9168995 0.1 1012556
08:00−5ююз61290100 0.1 1012403
11:00−3юз71290100 0.1 1012499
14:00−1ююз71190100 0.1 1011688
17:00−1ююз61191100 0.3 1010702
20:00−2ююз41096100 0.2 1009409
10 марта, ср
ср1023:00−2ююз61293100 0.4 1007511
02:00−2ю61392100 0.1 1004535
05:00−2ююз91592100 0.8 1002783
08:00−9з81590100 0.1 1005578
11:00−10з81389100 0.1 1008547
14:00−9з7128671 0.0 1010649
17:00−10з7118875 0.0 1011772
20:00−13з61291100 0.1 1013549
11 марта, чт
чт1123:00−15з6129298 0.1 1014415
02:00−16з6119397 0.1 1014372
05:00−18зсз5109593 0.1 1016242
08:00−21зсз499773 0.0 1017170
11:00−20зсз589137 0.0 1019395
14:00−18зсз588737 0.0 1021507
17:00−18зсз588761 0.0 1022522
20:00−23зсз349417 0.0 102440
12 марта, пт
пт1223:00−25зсз349817 0.0 102739
02:00−25зсз349870 0.0 102834
05:00−26зсз339857 0.0 102925
08:00−26зсз239849 0.0 103020
11:00−21зсз249438 0.0 1031210
14:00−16зсз359088 0.0 1031352
17:00−15з359494 0.1 1031315
20:00−17сз339896 0.0 103225
13 марта, сб
сб1323:00−20зсз2310076 0.0 103420
02:00−20сз2310066 0.0 103520
05:00−21сз2310078 0.0 103520
08:00−22сз1210073 0.0 103620
11:00−17сз239348 0.0 1037166
14:00−13сз348415 0.0 1036311
17:00−13сз35898 0.0 1035266
20:00−17сз23920 0.0 103420